Location: Casteau
(50.5142°N, 4.0161°E)
Time: 05:04:47
(UTC+00:00)

ATLAS 3B R/B - Pass Details

Date: 18 September 2020
Orbit: 1016 x 1179 km, 63.8° (Epoch: 28 October)

Event Time Altitude Azimuth Distance (km) Brightness Sun altitude
Rises 21:20:41 0° 316° (NW) 3,825 6.8 -30.4°
Reaches altitude 10° 21:23:17 10° 316° (NW) 2,887 5.9 -30.7°
Enters shadow 21:30:03 79° 240° (WSW) 1,111 2.6 -31.4°
